• In Spain
  • List of Countries
  • For 7 days
  • Water Temperature
  • Satellite Maps
  • Weather Map
  • Weather Widgets
  • user-avatar
    Login

    Hourly Weather Sao Joao das Lampas

    Today, 22 November, Wednesday

    Time Temperature Precipitation Wind Pressure Humidity
    00:00 +12°C° 0 mm 5 mps 748 mmHg 86%
    01:00 +10°C° 0 mm 6 mps 748 mmHg 84%
    02:00 +10°C° 0 mm 6 mps 747 mmHg 83%
    03:00 +10°C° 0 mm 6 mps 747 mmHg 81%
    04:00 +10°C° 0 mm 6 mps 747 mmHg 79%
    05:00 +10°C° 0 mm 6 mps 746 mmHg 78%
    06:00 +10°C° 0 mm 7 mps 746 mmHg 74%
    07:00 +11°C° 0 mm 7 mps 746 mmHg 70%
    08:00 +12°C° 0 mm 7 mps 746 mmHg 66%
    09:00 +16°C° 0 mm 8 mps 746 mmHg 61%
    10:00 +18°C° 0 mm 8 mps 746 mmHg 57%
    11:00 +21°C° 0 mm 8 mps 746 mmHg 53%
    12:00 +21°C° 0 mm 9 mps 746 mmHg 53%
    13:00 +21°C° 0 mm 9 mps 745 mmHg 54%
    14:00 +21°C° 0 mm 9 mps 745 mmHg 54%
    15:00 +20°C° 0.2 mm 8 mps 745 mmHg 58%
    16:00 +18°C° 0.2 mm 7 mps 745 mmHg 62%
    17:00 +19°C° 0.2 mm 6 mps 745 mmHg 66%
    18:00 +17°C° 0.1 mm 7 mps 745 mmHg 68%
    19:00 +17°C° 0.1 mm 7 mps 745 mmHg 71%
    20:00 +17°C° 0.1 mm 7 mps 745 mmHg 74%
    21:00 +17°C° 0 mm 7 mps 745 mmHg 75%
    22:00 +17°C° 0 mm 7 mps 745 mmHg 75%
    23:00 +17°C° 0 mm 7 mps 745 mmHg 75%

    Tomorrow, 23 November, Thursday

    Time Temperature Precipitation Wind Pressure Humidity
    00:00 +17°C° 0.1 mm 7 mps 745 mmHg 76%
    01:00 +17°C° 0.1 mm 7 mps 745 mmHg 76%
    02:00 +17°C° 0.1 mm 6 mps 745 mmHg 77%
    03:00 +17°C° 0 mm 6 mps 745 mmHg 76%
    04:00 +17°C° 0 mm 7 mps 745 mmHg 76%
    05:00 +17°C° 0 mm 7 mps 745 mmHg 76%
    06:00 +17°C° 0 mm 7 mps 745 mmHg 72%
    07:00 +17°C° 0 mm 7 mps 746 mmHg 67%
    08:00 +17°C° 0 mm 8 mps 746 mmHg 63%
    09:00 +18°C° 0.2 mm 8 mps 746 mmHg 57%
    10:00 +19°C° 0.2 mm 9 mps 746 mmHg 50%
    11:00 +21°C° 0.2 mm 9 mps 746 mmHg 44%
    12:00 +21°C° 1 mm 10 mps 746 mmHg 49%
    13:00 +19°C° 1 mm 11 mps 745 mmHg 53%
    14:00 +19°C° 1 mm 12 mps 745 mmHg 58%
    15:00 +19°C° 0.5 mm 11 mps 745 mmHg 65%
    16:00 +18°C° 0.5 mm 10 mps 746 mmHg 73%
    17:00 +18°C° 0.5 mm 9 mps 746 mmHg 80%
    18:00 +18°C° 0.1 mm 8 mps 747 mmHg 81%
    19:00 +17°C° 0.1 mm 7 mps 747 mmHg 82%
    20:00 +17°C° 0.1 mm 6 mps 748 mmHg 83%
    21:00 +16°C° 0 mm 5 mps 748 mmHg 84%
    22:00 +16°C° 0 mm 5 mps 748 mmHg 86%
    23:00 +16°C° 0 mm 5 mps 748 mmHg 87%

    Day after tomorrow, 24 November, Friday

    Time Temperature Precipitation Wind Pressure Humidity
    00:00 +16°C° 0.4 mm 5 mps 748 mmHg 87%
    01:00 +16°C° 0.4 mm 5 mps 747 mmHg 88%
    02:00 +17°C° 0.4 mm 4 mps 747 mmHg 88%
    03:00 +15°C° 0.5 mm 5 mps 747 mmHg 89%
    04:00 +15°C° 0.5 mm 5 mps 747 mmHg 90%
    05:00 +15°C° 0.5 mm 6 mps 747 mmHg 91%
    06:00 +15°C° 0.3 mm 6 mps 747 mmHg 88%
    07:00 +16°C° 0.3 mm 6 mps 748 mmHg 85%
    08:00 +16°C° 0.3 mm 7 mps 748 mmHg 82%
    09:00 +18°C° 0.1 mm 7 mps 748 mmHg 76%
    10:00 +20°C° 0.1 mm 7 mps 748 mmHg 69%
    11:00 +21°C° 0.1 mm 8 mps 748 mmHg 63%
    12:00 +21°C° 0.2 mm 7 mps 748 mmHg 63%
    13:00 +21°C° 0.2 mm 7 mps 748 mmHg 63%
    14:00 +21°C° 0.2 mm 6 mps 747 mmHg 63%
    15:00 +20°C° 0.1 mm 5 mps 747 mmHg 70%
    16:00 +19°C° 0.1 mm 5 mps 748 mmHg 78%
    17:00 +18°C° 0.1 mm 4 mps 748 mmHg 85%
    18:00 +17°C° 0.2 mm 3 mps 748 mmHg 87%
    19:00 +17°C° 0.2 mm 3 mps 749 mmHg 90%
    20:00 +16°C° 0.2 mm 2 mps 749 mmHg 92%
    21:00 +16°C° 0.2 mm 2 mps 749 mmHg 92%
    22:00 +16°C° 0.2 mm 2 mps 750 mmHg 92%
    23:00 +16°C° 0.2 mm 2 mps 750 mmHg 92%

    25 November, Saturday

    Time Temperature Precipitation Wind Pressure Humidity
    00:00 +16°C° 0 mm 3 mps 750 mmHg 92%
    01:00 +15°C° 0 mm 4 mps 750 mmHg 92%
    02:00 +15°C° 0 mm 5 mps 749 mmHg 92%
    03:00 +14°C° 0.1 mm 5 mps 750 mmHg 92%
    04:00 +14°C° 0.1 mm 5 mps 750 mmHg 92%
    05:00 +14°C° 0.1 mm 5 mps 750 mmHg 92%
    06:00 +14°C° 0.2 mm 5 mps 750 mmHg 90%
    07:00 +14°C° 0.2 mm 5 mps 751 mmHg 89%
    08:00 +14°C° 0.2 mm 5 mps 751 mmHg 87%
    09:00 +15°C° 0.4 mm 4 mps 751 mmHg 84%
    10:00 +17°C° 0.4 mm 4 mps 751 mmHg 80%
    11:00 +18°C° 0.4 mm 3 mps 751 mmHg 77%
    12:00 +17°C° 0.3 mm 3 mps 751 mmHg 79%
    13:00 +17°C° 0.3 mm 3 mps 751 mmHg 80%
    14:00 +17°C° 0.3 mm 3 mps 750 mmHg 82%
    15:00 +16°C° 0.5 mm 2 mps 750 mmHg 85%
    16:00 +16°C° 0.5 mm 2 mps 751 mmHg 87%
    17:00 +15°C° 0.5 mm 1 mps 751 mmHg 90%
    18:00 +15°C° 0.3 mm 1 mps 751 mmHg 90%
    19:00 +15°C° 0.3 mm 2 mps 751 mmHg 90%
    20:00 +15°C° 0.3 mm 2 mps 751 mmHg 90%
    21:00 +15°C° 0.1 mm 2 mps 751 mmHg 89%
    22:00 +15°C° 0.1 mm 2 mps 751 mmHg 89%
    23:00 +15°C° 0.1 mm 2 mps 751 mmHg 88%

    26 November, Sunday

    Time Temperature Precipitation Wind Pressure Humidity
    00:00 +14°C° 0.2 mm 2 mps 751 mmHg 88%
    01:00 +14°C° 0.2 mm 2 mps 751 mmHg 89%
    02:00 +14°C° 0.2 mm 2 mps 751 mmHg 89%
    03:00 +14°C° 0.4 mm 2 mps 751 mmHg 90%
    04:00 +14°C° 0.4 mm 2 mps 751 mmHg 90%
    05:00 +14°C° 0.4 mm 1 mps 751 mmHg 91%
    06:00 +14°C° 0.3 mm 2 mps 752 mmHg 91%
    07:00 +14°C° 0.3 mm 2 mps 752 mmHg 91%
    08:00 +14°C° 0.3 mm 2 mps 753 mmHg 90%
    09:00 +15°C° 0.4 mm 2 mps 753 mmHg 89%
    10:00 +15°C° 0.4 mm 2 mps 753 mmHg 89%
    11:00 +15°C° 0.4 mm 2 mps 753 mmHg 88%
    12:00 +16°C° 0.1 mm 3 mps 753 mmHg 85%
    13:00 +17°C° 0.1 mm 3 mps 753 mmHg 83%
    14:00 +17°C° 0.1 mm 3 mps 752 mmHg 81%
    15:00 +16°C° 0 mm 3 mps 752 mmHg 84%
    16:00 +14°C° 0 mm 3 mps 753 mmHg 88%
    17:00 +13°C° 0 mm 3 mps 753 mmHg 91%
    18:00 +13°C° 0 mm 4 mps 753 mmHg 92%
    19:00 +13°C° 0 mm 4 mps 753 mmHg 92%
    20:00 +12°C° 0 mm 4 mps 753 mmHg 93%
    21:00 +12°C° 0 mm 5 mps 753 mmHg 92%
    22:00 +12°C° 0 mm 5 mps 753 mmHg 91%
    23:00 +12°C° 0 mm 5 mps 753 mmHg 91%

    27 November, Monday

    Time Temperature Precipitation Wind Pressure Humidity
    00:00 +12°C° 0 mm 5 mps 753 mmHg 90%
    01:00 +12°C° 0 mm 5 mps 752 mmHg 89%
    02:00 +12°C° 0 mm 5 mps 752 mmHg 88%
    03:00 +12°C° 0 mm 5 mps 752 mmHg 87%
    04:00 +12°C° 0 mm 5 mps 752 mmHg 86%
    05:00 +12°C° 0 mm 5 mps 752 mmHg 85%
    06:00 +11°C° 0 mm 6 mps 752 mmHg 84%
    07:00 +13°C° 0 mm 6 mps 752 mmHg 82%
    08:00 +13°C° 0 mm 6 mps 752 mmHg 81%
    09:00 +14°C° 0 mm 6 mps 752 mmHg 76%
    10:00 +15°C° 0 mm 6 mps 752 mmHg 71%
    11:00 +16°C° 0 mm 6 mps 752 mmHg 65%
    12:00 +17°C° 0 mm 5 mps 751 mmHg 64%
    13:00 +17°C° 0 mm 5 mps 750 mmHg 62%
    14:00 +17°C° 0 mm 5 mps 750 mmHg 60%
    15:00 +18°C° 0.2 mm 4 mps 749 mmHg 63%
    16:00 +17°C° 0.2 mm 4 mps 749 mmHg 66%
    17:00 +15°C° 0.2 mm 4 mps 749 mmHg 70%
    18:00 +15°C° 1 mm 4 mps 748 mmHg 74%
    19:00 +15°C° 1 mm 5 mps 748 mmHg 79%
    20:00 +14°C° 1 mm 5 mps 748 mmHg 84%
    21:00 +14°C° 1.6 mm 5 mps 747 mmHg 87%
    22:00 +15°C° 1.6 mm 5 mps 747 mmHg 90%
    23:00 +15°C° 1.6 mm 5 mps 746 mmHg 93%
    Show more